Погода Аул Турара Рыскулова

Поиск расширенной информации на нашем сайте:

Полезная информация:

Новости сайта



02.01.2020
Опубликован Долгосрочный прогноз погоды по городам России и ближнего зарубежья на январь 2020 года.
Карты: Прогноз на январь и февраль 2020 года, Сравнение прогнозируемой аномалии приземной температуры воздуха на январь 2020 года по разным моделям.




Погода Аул Турара Рыскулова - сегодня

Время (UTC), дата Ветер
(°,м/с) 
Видим.   Явления Облачность Т
(°С)
Тd
(°С)
f(%) Тe
(°С)
Pmin
(гПа)
dP
(гПа)
Po
(мм)
O2
(г/м3)
Тmin Tmax R s Состояние
почвы
12 22.10.21 290 (З) 20000 м    10/10 600 м 
[St]
+4 +1.3 83 +3  1034.6  1.5  703  279           
15 22.10.21 тихо ()   н/о    10/10 300 м 
[St]
+3.3 +1.8 90 +3  1036.1  1.2  704  280    +5       
18 22.10.21 тихо ()   н/о    10/10 300 м 
[St]
+2.6 +1.9 95 +3  1036.7  0.3  705  281    +5       
21 22.10.21 тихо ()   н/о    4/0 средняя, верхняя 
[Ac lent|Ci fib]
+0.7 +0.2 96 +1  1036.7  -0.7  704  283           
00 23.10.21 тихо ()   н/о    8/3 1000 м средняя 
[Sc|Ac und]
+1.1 +0 92 +1  1035.9  -0.6  704  282           
03 23.10.21 тихо ()   20000 м    6/0 средняя 
[Ac cast]
+3 +1.5 90 +3  1035.1  704  280           
06 23.10.21 тихо ()   20000 м    ясно 
+9.6 -2 44 +10  1032.2  -0.6  703  274  +0.1         
09 23.10.21 тихо ()   20000 м    1/0 верхняя 
[Ci fib]
+12.6 -0.7 40 +13  1029  -1.9  702  270           
12 23.10.21 060 (СВ) 20000 м    3/0 верхняя 
[Ci sp]
+9.4 -2 45 +9  1030  -0.2  702  273           
15 23.10.21 070 (В) н/о    ясно 
+6.5 -1.8 55 +6  1031.1  0.1  702  276    +13.7       
18 23.10.21 тихо ()   н/о    ясно 
+5 -0.6 67 +5  1029.8  -1.9  703  278    +13.7       
21 23.10.21 090 (В) н/о    ясно 
+4.2 -0.7 70 +4  1027.8  -2  699  277           
00 24.10.21 120 (ЮВ) н/о    ясно 
+4.6 -2.4 60 +3  1026.3  -1.3  698  277           
03 24.10.21 190 (Ю) 20000 м    ясно 
+7.2 -4.3 44 +6  1024.3  -1  697  274           
06 24.10.21 090 (В) 20000 м    ясно 
+13.1 -5.1 28 +13  1021  -1.2  696  268  +3.3         
09 24.10.21 060 (СВ) 20000 м    ясно 
+15 -3.7 27 +15  1017.7  -2.4  695  266           
12 24.10.21 070 (В) 4000 м  мгла  ясно 
+11.3 -2 39 +11  1018.5  -0.4  694  269           
15 24.10.21 070 (В) н/о    ясно 
+9.7 -2.8 41 +9  1018.7  -0.3  694  270    +15.6       
18 24.10.21 090 (В) н/о    ясно 
+6.6 -2 54 +6  1018.6  -1  693  273    +15.6       
21 24.10.21 тихо ()   н/о    ясно 
+6 -1.5 59 +6  1017.1  -1.7  692  273           
00 25.10.21 тихо ()   н/о    ясно 
+6.1 -2 56 +6  1016.7  -0.2  692  273           
03 25.10.21 тихо ()   20000 м    ясно 
+7.5 -2.3 50 +8  1016.7  0.4  692  272           
06 25.10.21 тихо ()   20000 м    ясно 
+17 -6 20 +17  1014.6  693  263  +5         
09 25.10.21 280 (З) 10 км    ясно 
+20.3 -6.2 16 +20  1012.5  -1  692  260           
12 25.10.21 тихо ()   4000 м  мгла  ясно 
+14.5 -3.4 29 +15  1014.8  0.4  692  265           
Время (UTC), дата Ветер
(°,м/с) 
Видим.   Явления Облачность Т
(°С)
Тd
(°С)
f(%) Тe
(°С)
Pmin
(гПа)
dP
(гПа)
Po
(мм)
O2
(г/м3)
Тmin Tmax R s Состояние
почвы

Для получения пояснительной информации подведите курсор к названию столбца.

ПОГОДА Аул Турара Рыскулова - архив

Всё, что Вы хотите узнать о погоде Аул Турара Рыскулова - удобно и подробно!

Выберите нужную дату (начиная с 1 января 2019* года) и нажмите кнопку "Найти".
Будут отображены архивные сводки погоды по пункту Аул Турара Рыскулова, начиная с указанной даты.


Отображать данные в формате CSV (для использования в таблицах Excel)


Внимание! Наш архив погоды предназначен исключительно для личного некоммерческого использования в познавательных целях. Если Вам необходимы официальные справки о состоянии погоды (для производственных, юридических, коммерческих и т.п. целей), обращайтесь в органы Росгидромета.

*Примечание: данная дата относится к архиву по метеостанциям СССР (Россия, СНГ, Балтия).
Архив по метеостанциям Зарубежной Европы и Азии (кроме Китая) хранится 10 дней, по другим регионам земного шара (Китай, Африка, Америка, Австралия, Океания) - 1 день.

Аул Турара Рыскулова - район местоположения метеостанции


Название, широта, долгота, высота метеостанции:
Аул Турара Рыскулова (Тюлькубас) 42.5°ш. 70.3°д. 808 м над ур. моря [Казахстан]

Дополнительная информация

В oтличие oт бoльшинства пoгoдных сайтoв мы публикуем пoдрoбную метеoинфoрмацию в детальнoм прoфессиoнальнoм фoрмате.

Характеристики температуры и влажнoсти вoздуха измеряются на высoте 2 м в тени вдали oт зданий и деревьев.
Скoрoсть ветра измеряется на высoте 10 м (на урoвне рoста челoвека скoрoсть ветра ниже в 1.5-2 раза). Если метеoстанция нахoдится в гoрoде или в лесу, тo скoрoсть ветра занижена на 2-4 м/с пo сравнению с oткрытым местoм. Скoрoсть ветра над акватoриями крупных рек и oзёр, а также на вершинах хoлмoв на 2-5 м/с выше, чем в oбычных услoвиях.
Атмoсфернoе давление в разных тoчках местнoсти мoжет значительнo oтличаться oт давления на метеoстанции, в зависимoсти oт услoвий рельефа (при пoдъёме на 10 м давление пoнижается примернo на 1 мм рт.ст.).